Portada
METAR-TAF:

METAR-TAF

Aeroports :

Hughenden, Austràlia

latitud: 20-48-54S, longitud: 144-13-30E, altitud: 318 m

Observació

L'informe es va fer fa 55 minuts, a les 20:00 UTC
Vent calma
Temperatura 25°C
Humitat 74%
Pressió 1008 hPa
Visibilitat 10 km o més

METAR: YHUG 272000Z AUTO 00000KT 9999 // NCD 25/20 Q1008

Hora: 06:55 (20:55 UTC)


TAF: manca

Observacions i pronòstics meteorològics de més de 4000 aeroports (METAR i TAF).

Les estacions disponibles són els punts grocs i vermells al mapa.

Posi el ratolí al punt desitjat per veure el nom de l'estació.

Feu clic per veure les observacions i els pronòstics meteorològics.

Per canviar el mapa: feu clic els botons verds amb una creu de color negre per apropar; al botó verd amb un guió per allunyar la imatge; o en les fletxes verdes per a mapes adjacents.


METAR-TAF: